Weather History for KSUE - January, 2014

Change the Weather History Date:

Tuesday, January 7, 2014

  Actual Average (KGRB) Record (KGRB)
Temperature  
Mean Temperature -10 °F 17 °F  
Max Temperature -4 °F 24 °F 44 °F (1965)
Min Temperature -16 °F 9 °F -29 °F (1887)
Degree Days  
Heating Degree Days 75 48  
Month to date heating degree days 336  
Since 1 July heating degree days 3426  
Cooling Degree Days 0 0  
Month to date cooling degree days 0  
Year to date cooling degree days 0  
Moisture  
Dew Point -23 °F    
Average Humidity 55    
Maximum Humidity 64    
Minimum Humidity 48    
Precipitation  
Precipitation 0.00 in 0.04 in 0.79 in (2008)
Month to date precipitation 0.28  
Year to date precipitation 0.28  
Snow  
Snow 0.00 in 0.40 in 4.90 in (2010)
Month to date snowfall 2.8  
Since 1 July snowfall 20.1  
Snow Depth -    
Sea Level Pressure  
Sea Level Pressure 30.06 in    
Wind  
Wind Speed 15 mph (WSW)    
Max Wind Speed 22 mph    
Max Gust Speed 28 mph    
Visibility 10 miles    
Events      
T = Trace of Precipitation, MM = Missing Value Source: NWS Daily Summary

Daily Weather History Graph

Daily Weather History Graph

Search for Another Location

Airport or City:

Trip Planner

Search our weather history database for the weather conditions in past years. The results will help you decide how hot, cold, wet, or windy it might be!

Date:

Astronomy

Jan. 07, 2014 Rise Set
Actual Time 7:26 AM CST 4:25 PM CST
Civil Twilight 6:53 AM CST 4:58 PM CST
Nautical Twilight 6:16 AM CST 5:35 PM CST
Astronomical Twilight 5:41 AM CST 6:10 PM CST
Moon 10:56 AM CST (1/7) No Moon Set
Length of Visible Light 10h 04m
Length of Day
8h 58m
Waxing Crescent, 46% of the Moon is Illuminated
Jan 7
Waxing Crescent
Jan 7
First Quarter
Jan 15
Full
Jan 23
Last Quarter
Jan 30
New

Hourly Weather History & Observations

Time (CST) Temp. Windchill Dew Point Humidity Pressure Visibility Wind Dir Wind Speed Gust Speed Precip Events Conditions
12:15 AM -14.8 °F -41.2 °F -29.2 °F 48% 29.99 in 10.0 mi West 19.6 mph 24.2 mph N/A   Scattered Clouds
12:35 AM -16.6 °F -39.8 °F -27.4 °F 58% 29.98 in 10.0 mi West 13.8 mph 21.9 mph N/A   Clear
12:55 AM -16.6 °F -40.6 °F -29.2 °F 53% 29.97 in 10.0 mi West 15.0 mph 19.6 mph N/A   Clear
1:15 AM -16.6 °F -37.9 °F -29.2 °F 53% 29.98 in 10.0 mi West 11.5 mph 18.4 mph N/A   Clear
1:35 AM -16.6 °F -38.9 °F -29.2 °F 53% 29.98 in 10.0 mi West 12.7 mph 19.6 mph N/A   Clear
1:55 AM -16.6 °F -39.8 °F -27.4 °F 58% 29.98 in 10.0 mi West 13.8 mph 18.4 mph N/A   Clear
2:15 AM -16.6 °F -38.9 °F -27.4 °F 58% 29.99 in 10.0 mi West 12.7 mph - N/A   Clear
2:35 AM -16.6 °F -38.9 °F -27.4 °F 58% 29.99 in 10.0 mi West 12.7 mph 19.6 mph N/A   Clear
2:55 AM -16.6 °F -40.6 °F -27.4 °F 58% 29.99 in 10.0 mi West 15.0 mph 20.7 mph N/A   Clear
3:15 AM -16.6 °F -40.6 °F -27.4 °F 58% 29.99 in 10.0 mi West 15.0 mph 20.7 mph N/A   Clear
3:35 AM -16.6 °F -40.6 °F -27.4 °F 58% 29.99 in 10.0 mi WSW 15.0 mph - N/A   Clear
3:55 AM -16.6 °F -40.6 °F -27.4 °F 58% 29.99 in 10.0 mi WSW 15.0 mph 20.7 mph N/A   Clear
4:15 AM -16.6 °F -40.6 °F -27.4 °F 58% 29.99 in 10.0 mi WSW 15.0 mph - N/A   Clear
4:35 AM -16.6 °F -40.6 °F -27.4 °F 58% 29.99 in 10.0 mi WSW 15.0 mph 20.7 mph N/A   Clear
4:55 AM -16.6 °F -39.8 °F -29.2 °F 53% 29.97 in 10.0 mi WSW 13.8 mph 21.9 mph N/A   Clear
5:15 AM -16.6 °F -39.8 °F -29.2 °F 53% 29.99 in 10.0 mi WSW 13.8 mph - N/A   Clear
5:35 AM -16.6 °F -38.9 °F -29.2 °F 53% 29.99 in 10.0 mi West 12.7 mph - N/A   Clear
5:55 AM -16.6 °F -38.9 °F -27.4 °F 58% 29.98 in 10.0 mi West 12.7 mph 20.7 mph N/A   Clear
6:15 AM -16.6 °F -41.4 °F -29.2 °F 53% 29.99 in 10.0 mi WSW 16.1 mph 20.7 mph N/A   Clear
6:35 AM -16.6 °F -40.6 °F -29.2 °F 53% 29.99 in 10.0 mi West 15.0 mph 21.9 mph N/A   Clear
6:55 AM -16.6 °F -40.6 °F -27.4 °F 58% 30.00 in 10.0 mi West 15.0 mph 19.6 mph N/A   Clear
7:15 AM -16.6 °F -41.4 °F -29.2 °F 53% 30.00 in 10.0 mi WSW 16.1 mph 21.9 mph N/A   Clear
7:35 AM -16.6 °F -39.8 °F -29.2 °F 53% 30.00 in 10.0 mi West 13.8 mph 19.6 mph N/A   Clear
7:55 AM -16.6 °F -41.4 °F -27.4 °F 58% 30.01 in 10.0 mi West 16.1 mph 21.9 mph N/A   Clear
8:15 AM -16.6 °F -40.6 °F -27.4 °F 58% 30.02 in 10.0 mi WSW 15.0 mph 24.2 mph N/A   Clear
8:35 AM -16.6 °F -42.9 °F -25.6 °F 64% 30.03 in 10.0 mi WSW 18.4 mph 21.9 mph N/A   Clear
8:55 AM -16.6 °F -42.9 °F -27.4 °F 58% 30.03 in 10.0 mi West 18.4 mph 23.0 mph N/A   Clear
9:15 AM -16.6 °F -43.5 °F -27.4 °F 58% 30.03 in 10.0 mi WSW 19.6 mph 25.3 mph N/A   Clear
9:35 AM -14.8 °F -41.2 °F -25.6 °F 58% 30.03 in 10.0 mi West 19.6 mph 27.6 mph N/A   Clear
9:55 AM -14.8 °F -41.2 °F -25.6 °F 58% 30.04 in 10.0 mi WSW 19.6 mph 27.6 mph N/A   Clear
10:15 AM -14.8 °F -40.5 °F -25.6 °F 58% 30.05 in 10.0 mi WSW 18.4 mph 24.2 mph N/A   Clear
10:35 AM -13.0 °F -38.8 °F -25.6 °F 53% 30.05 in 10.0 mi WSW 19.6 mph 26.5 mph N/A   Clear
10:55 AM -13.0 °F -38.8 °F -23.8 °F 59% 30.05 in 10.0 mi West 19.6 mph - N/A   Clear
11:15 AM -11.2 °F -37.6 °F -25.6 °F 49% 30.04 in 10.0 mi WSW 21.9 mph 26.5 mph N/A   Clear
11:35 AM -11.2 °F -37.0 °F -23.8 °F 54% 30.03 in 10.0 mi West 20.7 mph 26.5 mph N/A   Clear
11:55 AM -11.2 °F -37.0 °F -23.8 °F 54% 30.03 in 10.0 mi WSW 20.7 mph 25.3 mph N/A   Clear
12:15 PM -9.4 °F -34.7 °F -23.8 °F 49% 30.03 in 10.0 mi West 20.7 mph 25.3 mph N/A   Clear
12:35 PM -9.4 °F -33.5 °F -22.0 °F 54% 30.03 in 10.0 mi WSW 18.4 mph 27.6 mph N/A   Clear
12:55 PM -7.6 °F -29.8 °F -20.2 °F 54% 30.03 in 10.0 mi West 16.1 mph 26.5 mph N/A   Clear
1:15 PM -7.6 °F -29.1 °F -20.2 °F 54% 30.03 in 10.0 mi West 15.0 mph - N/A   Clear
1:35 PM -7.6 °F -31.7 °F -20.2 °F 54% 30.03 in 10.0 mi WSW 19.6 mph - N/A   Clear
1:55 PM -5.8 °F -28.2 °F -18.4 °F 55% 30.04 in 10.0 mi West 17.3 mph 23.0 mph N/A   Clear
2:15 PM -5.8 °F -27.5 °F -18.4 °F 55% 30.04 in 10.0 mi West 16.1 mph - N/A   Clear
2:35 PM -5.8 °F -26.8 °F -18.4 °F 55% 30.05 in 10.0 mi WSW 15.0 mph 21.9 mph N/A   Clear
2:55 PM -4.0 °F -25.8 °F -18.4 °F 50% 30.05 in 10.0 mi WSW 17.3 mph 20.7 mph N/A   Clear
3:15 PM -4.0 °F -23.0 °F -18.4 °F 50% 30.06 in 10.0 mi WSW 12.7 mph - N/A   Clear
3:35 PM -4.0 °F -21.2 °F -18.4 °F 50% 30.06 in 10.0 mi WSW 10.4 mph - N/A   Clear
3:55 PM -4.0 °F -21.2 °F -18.4 °F 50% 30.06 in 10.0 mi WSW 10.4 mph - N/A   Clear
4:15 PM -4.0 °F -19.0 °F -16.6 °F 55% 30.07 in 10.0 mi WSW 8.1 mph - N/A   Clear
4:35 PM -5.8 °F -23.4 °F -18.4 °F 55% 30.08 in 10.0 mi SW 10.4 mph - N/A   Clear
4:55 PM -5.8 °F -23.4 °F -18.4 °F 55% 30.09 in 10.0 mi WSW 10.4 mph - N/A   Clear
5:15 PM -5.8 °F -22.4 °F -18.4 °F 55% 30.10 in 10.0 mi SW 9.2 mph - N/A   Clear
5:35 PM -5.8 °F -22.4 °F -18.4 °F 55% 30.10 in 10.0 mi WSW 9.2 mph - N/A   Clear
5:55 PM -4.0 °F -20.2 °F -18.4 °F 50% 30.12 in 10.0 mi WSW 9.2 mph - N/A   Clear
6:15 PM -4.0 °F -19.0 °F -16.6 °F 55% 30.12 in 10.0 mi WSW 8.1 mph - N/A   Clear
6:35 PM -4.0 °F -21.2 °F -18.4 °F 50% 30.13 in 10.0 mi WSW 10.4 mph - N/A   Clear
6:55 PM -4.0 °F -19.0 °F -18.4 °F 50% 30.13 in 10.0 mi WSW 8.1 mph - N/A   Clear
7:15 PM -4.0 °F -19.0 °F -18.4 °F 50% 30.14 in 10.0 mi WSW 8.1 mph - N/A   Clear
7:35 PM -4.0 °F -20.2 °F -18.4 °F 50% 30.15 in 10.0 mi WSW 9.2 mph - N/A   Clear
7:55 PM -4.0 °F -20.2 °F -18.4 °F 50% 30.15 in 10.0 mi West 9.2 mph - N/A   Clear
8:15 PM -4.0 °F -21.2 °F -18.4 °F 50% 30.15 in 10.0 mi West 10.4 mph - N/A   Clear
8:35 PM -4.0 °F -20.2 °F -18.4 °F 50% 30.15 in 10.0 mi West 9.2 mph - N/A   Clear
8:55 PM -5.8 °F -22.4 °F -18.4 °F 55% 30.16 in 10.0 mi West 9.2 mph - N/A   Clear
9:15 PM -5.8 °F -22.4 °F -18.4 °F 55% 30.16 in 10.0 mi West 9.2 mph - N/A   Clear
9:35 PM -5.8 °F -23.4 °F -18.4 °F 55% 30.17 in 10.0 mi West 10.4 mph - N/A   Clear
9:55 PM -5.8 °F -23.4 °F -18.4 °F 55% 30.18 in 10.0 mi West 10.4 mph - N/A   Clear
10:15 PM -5.8 °F -22.4 °F -18.4 °F 55% 30.19 in 10.0 mi West 9.2 mph - N/A   Clear
10:35 PM -5.8 °F -22.4 °F -18.4 °F 55% 30.19 in 10.0 mi West 9.2 mph - N/A   Clear
10:55 PM -5.8 °F -22.4 °F -16.6 °F 60% 30.20 in 10.0 mi West 9.2 mph - N/A   Clear
11:15 PM -5.8 °F -22.4 °F -18.4 °F 55% 30.20 in 10.0 mi West 9.2 mph - N/A   Clear
11:35 PM -5.8 °F -21.2 °F -18.4 °F 55% 30.20 in 10.0 mi West 8.1 mph - N/A   Clear
11:55 PM -5.8 °F -19.9 °F -16.6 °F 60% 30.20 in 10.0 mi West 6.9 mph - N/A   Clear